Change the Weather History Date:

Sunday, April 27, 2014

  Actual Average Record
Temperature  
Mean Temperature 71 °F -  
Max Temperature 82 °F 72 °F 88 °F (2003)
Min Temperature 60 °F 48 °F 39 °F (2008)
Cooling Degree Days 6    
Growing Degree Days 21 (Base 50)    
Moisture  
Dew Point 41 °F    
Average Humidity 42    
Maximum Humidity 90    
Minimum Humidity 12    
Precipitation  
Precipitation 0.00 in - - ()
Sea Level Pressure  
Sea Level Pressure 29.40 in    
Wind  
Wind Speed 23 mph (SW)    
Max Wind Speed 34 mph    
Max Gust Speed 48 mph    
Visibility 7 miles    
Events Thunderstorm    
Averages and records for this station are not official NWS values.
T = Trace of Precipitation, MM = Missing Value Source: NWS Daily Summary

Daily Weather History Graph

Daily Weather History Graph

Search for Another Location

Airport or City:

Trip Planner

Search our weather history database for the weather conditions in past years. The results will help you decide how hot, cold, wet, or windy it might be!

Date:

Astronomy

Apr. 27, 2014 Rise Set
Actual Time 6:49 AM CDT 8:18 PM CDT
Civil Twilight 6:22 AM CDT 8:45 PM CDT
Nautical Twilight 5:50 AM CDT 9:17 PM CDT
Astronomical Twilight 5:17 AM CDT 9:51 PM CDT
Moon 5:46 AM CDT (4/27) 6:57 PM CDT (4/27)
Length of Visible Light 14h 22m
Length of Day
13h 28m
Waning Crescent, 3% of the Moon is Illuminated
Apr 27
Waning Crescent
Apr 29
New
May 6
First Quarter
May 14
Full
May 21
Last Quarter

Hourly Weather History & Observations

Time (CDT) Temp. Dew Point Humidity Pressure Visibility Wind Dir Wind Speed Gust Speed Precip Events Conditions
12:15 AM 71.6 °F 62.6 °F 73% 29.50 in 2.5 mi South 27.6 mph 41.4 mph N/A   Haze
12:22 AM 71.6 °F 62.6 °F 73% 29.50 in 5.0 mi South 28.8 mph 36.8 mph N/A   Haze
12:53 AM 71.1 °F 63.0 °F 75% 29.44 in 7.0 mi South 25.3 mph 35.7 mph N/A   Clear
1:53 AM 69.1 °F 64.0 °F 84% 29.41 in 8.0 mi South 19.6 mph 27.6 mph N/A   Clear
2:53 AM 69.1 °F 64.9 °F 87% 29.39 in 7.0 mi South 25.3 mph 32.2 mph N/A   Clear
3:53 AM 69.1 °F 66.0 °F 90% 29.39 in 6.0 mi South 20.7 mph 29.9 mph N/A   Clear
4:53 AM 70.0 °F 66.0 °F 87% 29.40 in 6.0 mi South 18.4 mph 24.2 mph N/A   Mostly Cloudy
5:46 AM 68.0 °F 64.4 °F 88% 29.45 in 6.0 mi SSW 4.6 mph - 0.00 in Thunderstorm Mostly Cloudy
5:53 AM 68.0 °F 64.0 °F 87% 29.41 in 6.0 mi SW 8.1 mph - 0.00 in Thunderstorm Mostly Cloudy
6:01 AM 68.0 °F 64.4 °F 88% 29.48 in 6.0 mi SW 9.2 mph - N/A   Scattered Clouds
6:26 AM 66.2 °F 48.2 °F 52% 29.45 in 7.0 mi West 13.8 mph - N/A   Mostly Cloudy
6:53 AM 64.4 °F 42.8 °F 45% 29.47 in 9.0 mi West 11.5 mph - N/A   Mostly Cloudy
7:53 AM 61.0 °F 35.1 °F 38% 29.44 in 10.0 mi West 11.5 mph - N/A   Clear
8:53 AM 66.0 °F 32.0 °F 28% 29.44 in 10.0 mi WSW 21.9 mph 27.6 mph N/A   Clear
9:53 AM 66.9 °F 28.9 °F 24% 29.44 in 10.0 mi WSW 19.6 mph - N/A   Clear
10:53 AM 69.8 °F 30.2 °F 23% 29.46 in 10.0 mi SW 27.6 mph 33.4 mph N/A   Clear
11:53 AM 75.9 °F 30.0 °F 19% 29.39 in 10.0 mi SW 31.1 mph 40.3 mph N/A   Clear
12:53 PM 77.0 °F 28.9 °F 17% 29.37 in 10.0 mi WSW 33.4 mph 44.9 mph N/A   Clear
1:53 PM 80.1 °F 28.9 °F 15% 29.34 in 10.0 mi WSW 31.1 mph 43.7 mph N/A   Clear
2:53 PM 80.6 °F 26.6 °F 14% 29.37 in 7.0 mi WSW 34.5 mph 46.0 mph N/A   Mostly Cloudy
3:18 PM 80.6 °F 26.6 °F 14% 29.37 in 6.0 mi WSW 29.9 mph 43.7 mph N/A   Haze
3:32 PM 82.4 °F 26.6 °F 13% 29.36 in 5.0 mi SW 31.1 mph 43.7 mph N/A   Haze
3:53 PM 82.0 °F 25.0 °F 12% 29.29 in 5.0 mi WSW 29.9 mph 46.0 mph N/A   Haze
4:53 PM 81.0 °F 25.0 °F 13% 29.28 in 6.0 mi WSW 33.4 mph 48.3 mph N/A   Haze
5:53 PM 79.0 °F 25.0 °F 14% 29.28 in 5.0 mi WSW 29.9 mph 43.7 mph N/A   Haze
6:53 PM 78.1 °F 25.0 °F 14% 29.30 in 4.0 mi WSW 28.8 mph 42.6 mph N/A   Haze
7:53 PM 75.9 °F 21.9 °F 13% 29.31 in 5.0 mi WSW 21.9 mph 33.4 mph N/A   Haze
8:53 PM 73.9 °F 23.0 °F 15% 29.34 in 6.0 mi WSW 19.6 mph 28.8 mph N/A   Haze
9:53 PM 73.9 °F 21.9 °F 14% 29.36 in 6.0 mi WSW 18.4 mph 32.2 mph N/A   Haze
10:20 PM 68.0 °F 37.4 °F 33% 29.45 in 6.0 mi NNW 16.1 mph 26.5 mph N/A   Haze
10:53 PM 64.0 °F 37.0 °F 37% 29.44 in 5.0 mi NNW 11.5 mph - N/A   Haze
11:48 PM 60.8 °F 37.4 °F 42% 29.51 in 5.0 mi NNW 15.0 mph - N/A   Haze
11:53 PM 60.1 °F 37.9 °F 44% 29.47 in 5.0 mi NNW 15.0 mph - N/A   Haze